This demonstration page uses our WeatherBlox Daily Observations layout. Learn more.

Hourly Observations for March 9, 2017

Temp ( °F °C ) Dew Point ( °F °C ) Humidity (%) Winds ( mph kmh ) Pressure ( in mb ) Visibility ( mi km ) Precip ( " mm )
12:15 am 00:15 Clear 45 7 18 -8 34 34 SW 9 15 30.06 1018 10 16.0934 0 0
12:35 am 00:35 Clear 45 7.2 17 -8.1 33 33 SSW 9 15 30.06 1018 10 16.0934 0 0
12:55 am 00:55 Clear 43 6.2 17 -8.1 35 35 SSW 6 9 30.06 1018 10 16.0934 0 0
1:15 am 01:15 Clear 42 5.3 18 -7.9 38 38 SSW 9 15 30.06 1018 10 16.0934 0 0
1:35 am 01:35 Clear 43 6.2 17 -8.1 35 35 SW 5 7 30.06 1018 10 16.0934 0 0
1:55 am 01:55 Clear 43 6.3 17 -8.1 35 35 SSW 8 13 30.06 1018 10 16.0934 0 0
2:15 am 02:15 Clear 40 4.5 17 -8.1 40 40 SW 7 11 30.09 1019 10 16.0934 0 0
2:35 am 02:35 Clear 40 4.2 18 -8 41 41 SW 6 9 30.09 1019 10 16.0934 0 0
2:55 am 02:55 Clear 41 5.1 17 -8.1 38 38 SW 7 11 30.06 1018 10 16.0934 0 0
3:15 am 03:15 Clear 40 4.7 18 -7.8 40 40 SW 7 11 30.06 1018 10 16.0934 0 0
3:35 am 03:35 Clear 40 4.7 18 -7.7 41 41 SW 7 11 30.06 1018 10 16.0934 0 0
3:55 am 03:55 Clear 40 4.4 17 -8.3 40 40 W 7 11 30.06 1018 10 16.0934 0 0
4:15 am 04:15 Clear 37 3 17 -8.1 44 44 W 6 9 30.06 1018 10 16.0934 0 0
4:35 am 04:35 Clear 36 2.4 18 -7.8 47 47 W 5 7 30.09 1019 10 16.0934 0 0
4:55 am 04:55 Clear 39 3.7 18 -8 42 42 W 3 6 30.06 1018 10 16.0934 0 0
5:15 am 05:15 Clear 42 5.6 17 -8.5 36 36 W 3 6 30.06 1018 10 16.0934 0 0
5:35 am 05:35 Clear 46 7.5 17 -8.5 31 31 W 3 6 30.03 1017 10 16.0934 0 0
5:55 am 05:55 Clear 37 2.9 17 -8.5 43 43 Calm 30.06 1018 10 16.0934 0 0
6:15 am 06:15 Clear 39 4.1 19 -7.5 43 43 N 8 13 30.09 1019 10 16.0934 0 0
6:35 am 06:35 Clear 38 3.2 19 -7.3 46 46 N 8 13 30.09 1019 10 16.0934 0 0
6:55 am 06:55 Clear 35 1.8 21 -5.9 57 57 NNE 10 17 30.12 1020 10 16.0934 0 0
7:15 am 07:15 Sunny 38 3.3 24 -4.4 57 57 N 13 20 30.09 1019 10 16.0934 0 0
7:35 am 07:35 Sunny 37 2.5 24 -4.2 62 62 NNE 12 19 30.12 1020 10 16.0934 0 0
7:55 am 07:55 Sunny 35 1.9 25 -4 65 65 N 14 22 30.12 1020 10 16.0934 0 0
8:15 am 08:15 Sunny 34 0.9 24 -4.5 68 68 N 16 26 30.12 1020 10 16.0934 0 0
8:35 am 08:35 Sunny 33 0.5 23 -5.1 66 66 N 13 20 30.15 1021 10 16.0934 0 0
8:55 am 08:55 Sunny 33 0.6 21 -6.3 60 60 NNE 10 17 30.15 1021 10 16.0934 0 0
9:15 am 09:15 Sunny 34 1.2 20 -6.4 57 57 N 14 22 30.15 1021 10 16.0934 0 0
9:35 am 09:35 Sunny 35 1.5 20 -6.5 56 56 N 15 24 30.15 1021 10 16.0934 0 0
9:55 am 09:55 Sunny 36 2.4 20 -6.4 53 53 NNE 13 20 30.15 1021 10 16.0934 0 0
10:15 am 10:15 Sunny 37 2.6 20 -6.6 51 51 N 10 17 30.15 1021 10 16.0934 0 0
10:35 am 10:35 Sunny 37 3 20 -6.5 50 50 NNE 14 22 30.15 1021 10 16.0934 0 0
10:55 am 10:55 Sunny 38 3.6 21 -6.2 49 49 N 14 22 30.12 1020 10 16.0934 0 0
11:15 am 11:15 Sunny 40 4.3 21 -5.9 48 48 NNE 10 17 30.12 1020 10 16.0934 0 0
11:35 am 11:35 Sunny 42 5.7 22 -5.5 45 45 NE 10 17 30.12 1020 10 16.0934 0 0
11:55 am 11:55 Sunny 45 7.3 23 -5 42 42 NNE 9 15 30.09 1019 10 16.0934 0 0
12:15 pm 12:15 Sunny 47 8.4 23 -5.2 38 38 NE 8 13 30.09 1019 10 16.0934 0 0
12:35 pm 12:35 Sunny 49 9.4 23 -5.1 36 36 NE 13 20 30.09 1019 10 16.0934 0 0
12:55 pm 12:55 Sunny 50 10.2 23 -4.9 34 34 NNE 9 15 30.06 1018 10 16.0934 0 0
1:15 pm 13:15 Sunny 51 10.7 23 -4.8 34 34 NNE 9 15 30.06 1018 10 16.0934 0 0
1:35 pm 13:35 Sunny 52 11.2 24 -4.6 33 33 E 9 15 30.06 1018 10 16.0934 0 0
1:55 pm 13:55 Sunny 53 11.5 24 -4.6 32 32 ENE 9 15 30.06 1018 10 16.0934 0 0
2:15 pm 14:15 Sunny 54 12.1 24 -4.6 31 31 NE 3 6 30.03 1017 10 16.0934 0 0
2:35 pm 14:35 Sunny 55 12.8 24 -4.5 30 30 NNE 5 7 30.06 1018 10 16.0934 0 0
2:55 pm 14:55 Sunny 54 12.2 24 -4.5 31 31 NE 7 11 30.06 1018 10 16.0934 0 0
3:15 pm 15:15 Sunny 53 11.8 23 -4.9 31 31 ENE 14 22 30.06 1018 10 16.0934 0 0
3:35 pm 15:35 Sunny 51 10.6 23 -5.2 33 33 NE 13 20 30.06 1018 10 16.0934 0 0
3:55 pm 15:55 Sunny 52 11.2 23 -5 32 32 NE 10 17 30.06 1018 10 16.0934 0 0
4:15 pm 16:15 Sunny 53 11.4 23 -5.1 31 31 NE 10 17 30.09 1019 10 16.0934 0 0
4:35 pm 16:35 Sunny 52 11.1 23 -5.2 32 32 NE 14 22 30.09 1019 10 16.0934 0 0
4:55 pm 16:55 Sunny 52 11.1 22 -5.3 32 32 NE 16 26 30.12 1020 10 16.0934 0 0
5:15 pm 17:15 Sunny 51 10.7 22 -5.7 31 31 NNE 18 30 30.12 1020 10 16.0934 0 0
5:35 pm 17:35 Sunny 50 10.1 21 -6.1 32 32 NE 20 31 30.15 1021 10 16.0934 0 0
5:55 pm 17:55 Sunny 49 9.6 20 -6.6 32 32 NE 18 30 30.15 1021 10 16.0934 0 0
6:15 pm 18:15 Sunny 47 8.5 19 -7.1 33 33 NE 22 35 30.18 1022 10 16.0934 0 0
6:35 pm 18:35 Sunny 46 7.5 18 -7.7 33 33 NNE 21 33 30.24 1024 10 16.0934 0 0
6:55 pm 18:55 Clear 44 6.5 17 -8.2 34 34 NE 21 33 30.24 1024 10 16.0934 0 0
7:15 pm 19:15 Clear 42 5.8 17 -8.2 36 36 NE 18 30 30.27 1025 10 16.0934 0 0
7:35 pm 19:35 Clear 41 5.2 19 -7.4 40 40 NE 22 35 30.27 1025 10 16.0934 0 0
7:55 pm 19:55 Clear 40 4.6 20 -6.5 45 45 NNE 22 35 30.33 1027 10 16.0934 0 0
8:15 pm 20:15 Clear 39 3.7 21 -6 50 50 NE 30 48 30.36 1028 10 16.0934 0 0
8:35 pm 20:35 Clear 35 1.7 22 -5.7 58 58 NE 25 41 30.42 1030 10 16.0934 0 0
8:55 pm 20:55 Clear 34 1 22 -5.7 61 61 NE 22 35 30.45 1031 10 16.0934 0 0
9:15 pm 21:15 Partly Cloudy 33 0.5 22 -5.7 64 64 NNE 25 41 30.45 1031 10 16.0934 0 0
9:35 pm 21:35 Clear 32 0 22 -5.8 65 65 NNE 23 37 30.48 1032 10 16.0934 0 0
9:55 pm 21:55 Clear 31 -0.5 21 -6 67 67 NNE 22 35 30.5 1033 10 16.0934 0 0
10:15 pm 22:15 Clear 31 -0.8 21 -6 68 68 NNE 14 22 30.5 1033 10 16.0934 0 0
10:35 pm 22:35 Clear 30 -1.2 21 -6.1 70 70 NNE 16 26 30.53 1034 10 16.0934 0 0
10:55 pm 22:55 Partly Cloudy 29 -1.9 20 -6.5 71 71 NNE 15 24 30.56 1035 10 16.0934 0 0
11:15 pm 23:15 Partly Cloudy 28 -2.3 20 -6.5 73 73 N 16 26 30.56 1035 10 16.0934 0 0
11:35 pm 23:35 Partly Cloudy 27 -2.7 20 -6.5 75 75 NNE 21 33 30.59 1036 10 16.0934 0 0
11:55 pm 23:55 Clear 26 -3.2 19 -7 75 75 NNE 18 30 30.56 1035 10 16.0934 0 0

Powered by AerisWeather